Location: St. Louis
(38.6270°N, 90.1994°W)
Time: 11:09:08
(UTC-06:00)

A-11 Canister half - Pass Details

Date: 09 December 2021
Orbit: 1524 x 1684 km, 47.3° (Epoch: 25 January)

Event Time Altitude Azimuth Distance (km) Brightness Sun altitude
Rises 03:18:56 0° 284° (WNW) 4,939 - -43.7°
Reaches altitude 10° 03:22:16 10° 290° (WNW) 3,949 - -43.1°
Maximum altitude 03:32:10 53° 5° (N) 1,980 - -41.2°
Exits shadow 03:32:52 52° 19° (NNE) 1,993 9.5 -41.0°
Drops below altitude 10° 03:41:51 10° 82° (E) 3,868 11.8 -39.3°
Sets 03:45:04 0° 87° (E) 4,833 12.5 -38.6°
